Time,TemperatureF,DewpointF,PressureIn,WindDirection,WindDirectionDegrees,WindSpeedMPH,WindSpeedGustMPH,Humidity,HourlyPrecipIn,Conditions,Clouds,dailyrainin,SoftwareType,DateUTC
2013-10-16 00:13:00,65.0,64.0,29.95,SSW,210,0.0,1.0,96,0.00,,,0.04,,2013-10-16 05:13:00,
2013-10-16 00:22:00,65.0,64.0,29.94,SSW,203,0.0,1.0,96,0.00,,,0.04,,2013-10-16 05:22:00,
2013-10-16 00:43:00,64.0,63.0,29.94,SW,215,0.0,0.0,96,0.00,,,0.04,,2013-10-16 05:43:00,
2013-10-16 00:52:00,64.0,63.0,29.94,SW,221,0.0,1.0,96,0.00,,,0.04,,2013-10-16 05:52:00,
2013-10-16 01:12:00,64.0,63.0,29.93,SSW,209,0.0,0.0,96,0.00,,,0.04,,2013-10-16 06:12:00,
2013-10-16 01:22:00,64.0,63.0,29.93,South,184,0.0,0.0,97,0.00,,,0.04,,2013-10-16 06:22:00,
2013-10-16 01:43:00,64.0,63.0,29.93,SSW,194,0.0,1.0,97,0.01,,,0.05,,2013-10-16 06:43:00,
2013-10-16 01:52:00,62.0,61.0,29.95,West,270,7.0,13.0,95,0.02,,,0.06,,2013-10-16 06:52:00,
2013-10-16 02:11:00,60.0,59.0,29.96,WNW,298,4.0,10.0,95,0.03,,,0.07,,2013-10-16 07:11:00,
2013-10-16 02:21:00,60.0,59.0,29.96,NNW,331,6.0,8.0,95,0.03,,,0.07,,2013-10-16 07:21:00,
2013-10-16 02:42:00,59.0,57.0,29.96,NW,311,3.0,9.0,94,0.02,,,0.07,,2013-10-16 07:42:00,
2013-10-16 02:53:00,59.0,56.0,29.96,WNW,296,3.0,9.0,90,0.01,,,0.07,,2013-10-16 07:53:00,
2013-10-16 03:11:00,58.0,55.0,29.97,NNW,346,4.0,8.0,91,0.00,,,0.07,,2013-10-16 08:11:00,
2013-10-16 03:21:00,58.0,55.0,29.97,WNW,300,3.0,9.0,89,0.00,,,0.07,,2013-10-16 08:21:00,
2013-10-16 03:42:00,58.0,55.0,29.97,NNW,332,3.0,7.0,89,0.00,,,0.07,,2013-10-16 08:42:00,
2013-10-16 03:52:00,57.0,54.0,29.97,NW,304,3.0,7.0,89,0.00,,,0.07,,2013-10-16 08:52:00,
2013-10-16 04:11:00,57.0,54.0,29.97,NW,323,0.0,6.0,89,0.00,,,0.07,,2013-10-16 09:11:00,
2013-10-16 04:22:00,57.0,54.0,29.98,WNW,298,0.0,4.0,89,0.00,,,0.07,,2013-10-16 09:22:00,
2013-10-16 04:43:00,57.0,54.0,29.99,WNW,282,0.0,5.0,89,0.00,,,0.07,,2013-10-16 09:43:00,
2013-10-16 04:53:00,57.0,53.0,29.99,WNW,298,1.0,3.0,88,0.00,,,0.07,,2013-10-16 09:53:00,
2013-10-16 05:12:00,57.0,53.0,29.98,WNW,301,0.0,3.0,88,0.00,,,0.07,,2013-10-16 10:12:00,
2013-10-16 05:23:00,56.0,52.0,29.99,North,355,4.0,8.0,85,0.00,,,0.07,,2013-10-16 10:23:00,
2013-10-16 05:42:00,56.0,52.0,29.99,NW,316,0.0,7.0,85,0.00,,,0.07,,2013-10-16 10:42:00,
2013-10-16 05:53:00,56.0,51.0,29.99,NNW,348,0.0,6.0,84,0.00,,,0.07,,2013-10-16 10:53:00,
2013-10-16 06:12:00,56.0,51.0,30.00,NNW,345,6.0,10.0,83,0.00,,,0.07,,2013-10-16 11:12:00,
2013-10-16 06:22:00,55.0,49.0,29.99,NNW,338,1.0,9.0,80,0.00,,,0.07,,2013-10-16 11:22:00,
2013-10-16 06:42:00,55.0,49.0,30.00,NNW,338,3.0,7.0,81,0.00,,,0.07,,2013-10-16 11:42:00,
2013-10-16 06:52:00,55.0,49.0,30.01,NNW,343,3.0,7.0,80,0.00,,,0.07,,2013-10-16 11:52:00,
2013-10-16 07:12:00,54.0,48.0,30.02,NW,309,3.0,7.0,81,0.00,,,0.07,,2013-10-16 12:12:00,
2013-10-16 07:21:00,54.0,48.0,30.02,NW,307,2.0,8.0,81,0.00,,,0.07,,2013-10-16 12:21:00,
2013-10-16 07:42:00,54.0,48.0,30.02,NNW,344,2.0,8.0,81,0.00,,,0.07,,2013-10-16 12:42:00,
2013-10-16 07:52:00,53.0,48.0,30.03,NW,321,0.0,5.0,82,0.00,,,0.07,,2013-10-16 12:52:00,
2013-10-16 08:11:00,53.0,48.0,30.03,NNW,329,0.0,6.0,82,0.00,,,0.07,,2013-10-16 13:11:00,
2013-10-16 08:22:00,53.0,48.0,30.03,NW,307,0.0,2.0,83,0.00,,,0.07,,2013-10-16 13:22:00,
2013-10-16 08:42:00,54.0,49.0,30.03,North,355,0.0,0.0,82,0.00,,,0.07,,2013-10-16 13:42:00,
2013-10-16 08:52:00,54.0,49.0,30.03,NW,320,0.0,1.0,83,0.00,,,0.07,,2013-10-16 13:52:00,
2013-10-16 09:11:00,54.0,49.0,30.04,NW,305,1.0,4.0,82,0.00,,,0.07,,2013-10-16 14:11:00,
2013-10-16 09:22:00,54.0,49.0,30.04,WNW,282,0.0,7.0,82,0.00,,,0.07,,2013-10-16 14:22:00,
2013-10-16 09:42:00,54.0,48.0,30.04,West,280,2.0,6.0,81,0.00,,,0.07,,2013-10-16 14:42:00,
2013-10-16 09:52:00,54.0,47.0,30.04,WNW,283,3.0,7.0,78,0.00,,,0.07,,2013-10-16 14:52:00,
2013-10-16 10:11:00,54.0,46.0,30.04,WNW,295,4.0,8.0,75,0.00,,,0.07,,2013-10-16 15:11:00,
2013-10-16 10:22:00,54.0,47.0,30.04,NNW,336,3.0,7.0,77,0.00,,,0.07,,2013-10-16 15:22:00,
2013-10-16 10:33:00,54.0,47.0,30.04,NNW,336,3.0,7.0,77,0.00,,,0.07,,2013-10-16 15:33:00,
2013-10-16 10:43:00,54.0,47.0,30.04,NNW,336,3.0,7.0,77,0.00,,,0.07,,2013-10-16 15:43:00,
2013-10-16 10:53:00,54.0,46.0,30.04,WNW,303,1.0,7.0,75,0.00,,,0.07,,2013-10-16 15:53:00,
2013-10-16 11:13:00,54.0,46.0,30.04,WNW,288,2.0,6.0,74,0.00,,,0.07,,2013-10-16 16:13:00,
2013-10-16 11:23:00,54.0,46.0,30.04,WNW,282,2.0,6.0,74,0.00,,,0.06,,2013-10-16 16:23:00,
2013-10-16 11:42:00,54.0,47.0,30.05,WNW,295,0.0,6.0,76,0.00,,,0.06,,2013-10-16 16:42:00,
2013-10-16 11:53:00,54.0,47.0,30.05,WNW,301,3.0,6.0,76,0.00,,,0.06,,2013-10-16 16:53:00,
2013-10-16 12:12:00,55.0,47.0,30.05,NNW,327,3.0,7.0,75,0.00,,,0.06,,2013-10-16 17:12:00,
2013-10-16 12:22:00,55.0,47.0,30.05,NW,322,2.0,8.0,74,0.00,,,0.06,,2013-10-16 17:22:00,
2013-10-16 12:43:00,56.0,48.0,30.04,West,273,1.0,7.0,75,0.00,,,0.06,,2013-10-16 17:43:00,
2013-10-16 12:52:00,57.0,48.0,30.03,WNW,290,4.0,8.0,71,0.00,,,0.06,,2013-10-16 17:52:00,
2013-10-16 13:11:00,57.0,47.0,30.03,West,280,1.0,7.0,69,0.00,,,0.06,,2013-10-16 18:11:00,
2013-10-16 13:22:00,57.0,47.0,30.02,SSW,205,0.0,1.0,68,0.00,,,0.06,,2013-10-16 18:22:00,
2013-10-16 13:42:00,58.0,47.0,30.02,NW,307,1.0,8.0,68,0.00,,,0.06,,2013-10-16 18:42:00,
2013-10-16 13:52:00,58.0,47.0,30.01,North,5,0.0,4.0,68,0.00,,,0.06,,2013-10-16 18:52:00,
2013-10-16 14:11:00,60.0,49.0,30.01,SE,146,0.0,10.0,67,0.00,,,0.06,,2013-10-16 19:11:00,
2013-10-16 14:22:00,60.0,48.0,30.00,WNW,293,3.0,11.0,64,0.00,,,0.03,,2013-10-16 19:22:00,
2013-10-16 14:42:00,60.0,49.0,29.99,North,355,0.0,9.0,66,0.00,,,0.03,,2013-10-16 19:42:00,
2013-10-16 14:52:00,61.0,49.0,29.99,WNW,282,4.0,8.0,65,0.00,,,0.03,,2013-10-16 19:52:00,
2013-10-16 15:12:00,61.0,48.0,29.98,NW,323,2.0,10.0,63,0.00,,,0.03,,2013-10-16 20:12:00,
2013-10-16 15:22:00,61.0,48.0,29.80,WNW,297,2.0,7.0,63,0.00,,,0.03,,2013-10-16 20:22:00,
2013-10-16 15:43:00,62.0,49.0,29.90,NNW,329,3.0,9.0,62,0.00,,,0.03,,2013-10-16 20:43:00,
2013-10-16 15:52:00,62.0,48.0,29.99,WNW,295,4.0,8.0,60,0.00,,,0.03,,2013-10-16 20:52:00,
2013-10-16 16:11:00,62.0,48.0,29.89,North,355,0.0,8.0,60,0.00,,,0.03,,2013-10-16 21:11:00,
2013-10-16 16:23:00,63.0,48.0,29.95,WNW,296,2.0,8.0,58,0.00,,,0.03,,2013-10-16 21:23:00,
2013-10-16 16:44:00,62.0,47.0,29.95,West,281,0.0,4.0,58,0.00,,,0.03,,2013-10-16 21:44:00,
2013-10-16 16:54:00,62.0,47.0,29.88,WNW,284,0.0,7.0,59,0.00,,,0.03,,2013-10-16 21:54:00,
2013-10-16 17:14:00,62.0,47.0,29.98,WNW,288,0.0,4.0,58,0.00,,,0.03,,2013-10-16 22:14:00,
2013-10-16 17:24:00,61.0,47.0,29.98,WNW,284,2.0,6.0,59,0.00,,,0.03,,2013-10-16 22:24:00,
2013-10-16 17:42:00,61.0,47.0,29.97,NNW,348,0.0,0.0,61,0.00,,,0.03,,2013-10-16 22:42:00,
2013-10-16 17:54:00,60.0,47.0,29.97,NW,311,0.0,0.0,62,0.00,,,0.03,,2013-10-16 22:54:00,
2013-10-16 18:12:00,60.0,49.0,29.98,NW,311,0.0,0.0,67,0.00,,,0.03,,2013-10-16 23:12:00,
2013-10-16 18:22:00,58.0,48.0,29.98,NW,311,0.0,0.0,69,0.00,,,0.03,,2013-10-16 23:22:00,
2013-10-16 18:42:00,57.0,49.0,29.98,NW,311,0.0,0.0,75,0.00,,,0.03,,2013-10-16 23:42:00,
2013-10-16 18:52:00,55.0,48.0,29.99,NW,311,0.0,0.0,78,0.00,,,0.03,,2013-10-16 23:52:00,
2013-10-16 19:11:00,54.0,48.0,30.00,NW,311,0.0,0.0,80,0.00,,,0.03,,2013-10-17 00:11:00,
2013-10-16 19:22:00,54.0,48.0,30.00,NW,311,0.0,0.0,79,0.00,,,0.03,,2013-10-17 00:22:00,
2013-10-16 19:42:00,54.0,47.0,30.00,NW,308,0.0,0.0,77,0.00,,,0.03,,2013-10-17 00:42:00,
2013-10-16 19:52:00,54.0,47.0,30.00,NW,308,0.0,0.0,77,0.00,,,0.03,,2013-10-17 00:52:00,
2013-10-16 20:12:00,53.0,46.0,30.01,NW,311,0.0,0.0,78,0.00,,,0.03,,2013-10-17 01:12:00,
2013-10-16 20:22:00,53.0,47.0,30.01,NW,311,0.0,0.0,79,0.00,,,0.03,,2013-10-17 01:22:00,
2013-10-16 20:42:00,52.0,46.0,30.01,NW,311,0.0,0.0,80,0.00,,,0.03,,2013-10-17 01:42:00,
2013-10-16 20:52:00,51.0,46.0,30.01,NW,311,0.0,0.0,82,0.00,,,0.03,,2013-10-17 01:52:00,
2013-10-16 21:12:00,51.0,46.0,30.01,NW,311,0.0,0.0,83,0.00,,,0.03,,2013-10-17 02:12:00,
2013-10-16 21:21:00,50.0,45.0,30.01,NW,311,0.0,0.0,84,0.00,,,0.03,,2013-10-17 02:21:00,
2013-10-16 22:12:00,49.0,45.0,30.03,NW,311,0.0,2.0,85,0.00,,,0.03,,2013-10-17 03:12:00,
2013-10-16 22:22:00,49.0,45.0,30.03,NW,317,0.0,3.0,85,0.00,,,0.03,,2013-10-17 03:22:00,
2013-10-16 22:44:00,49.0,45.0,30.03,NNW,343,0.0,3.0,85,0.00,,,0.03,,2013-10-17 03:44:00,
2013-10-16 22:54:00,49.0,45.0,30.03,NNW,343,0.0,0.0,85,0.00,,,0.03,,2013-10-17 03:54:00,
2013-10-16 23:14:00,49.0,45.0,30.03,North,360,0.0,0.0,85,0.00,,,0.03,,2013-10-17 04:14:00,
2013-10-16 23:24:00,49.0,45.0,30.03,North,355,0.0,0.0,85,0.00,,,0.03,,2013-10-17 04:24:00,
2013-10-16 23:43:00,48.0,44.0,30.03,NNW,329,0.0,0.0,86,0.00,,,0.03,,2013-10-17 04:43:00,
2013-10-16 23:54:00,48.0,44.0,30.03,NNW,329,0.0,0.0,86,0.00,,,0.03,,2013-10-17 04:54:00,